LUCH-5A (37951 NORAD) Tracking and Keplerian Element Data

This shows tracking and keplerian element data for the satellite.

Feedback or suggestion? Click here.




ElementValue
Catalog37951
NameLUCH-5A
Epoch Orbit4805
Epoch Day34.5999764
Epoch Year2025
RAAN81.3327
Inclination7.4791
Eccentricity0.0003302
Argument of Perigee214.0078
Mean Anonmoly221.7406
Mean Motion1.00267657
Decay Rate-4.7E-07
L11 37951U 11074B 25034.59997640 -.00000047 00000+0 00000+0 0 9991
L22 37951 7.4791 81.3327 0003302 214.0078 221.7406 1.00267657 48052



Live tracking and technical data element details for LUCH-5A (NORAD 37951). LUCH-5A can be tracked NOW for your location showing map with azimuth and elevation plus other details from your city location.







IsCatalogInMostPopularTable: catalog: 37951, numindb: 513
Update: records affected: 1



GetName: 37951 LUCH-5A

Hit Count: updated at: Thu, 22 May 2025 03:40:00 GMT